Location: *
(44.5833°S, 169.8500°W)
Time: 00:37:08
(UTC+00:00)

Daily predictions for brighter satellites

Satellite Brightness Start Highest point End
(mag) Time Altitude Azimuth Time Altitude Azimuth Time Altitude Azimuth
USA 215 3.4 04:17:19 10° ENE 04:23:49 63° SSE 04:30:20 10° SW
Cosmos 1110 Rocket 4.2 04:19:07 10° N 04:24:22 58° ENE 04:29:37 10° SSE
Cosmos 1606 2.7 04:22:48 10° S 04:26:47 80° E 04:30:41 10° N
CZ-4B R/B 4.1 04:25:24 10° S 04:30:15 56° WSW 04:34:57 10° NNW
USA 306 4.3 04:26:59 10° SW 04:30:26 23° S 04:33:53 10° ESE
Cosmos 2221 3.1 04:28:26 10° S 04:32:36 37° ESE 04:36:44 10° NE
USA 307 4.3 04:29:21 10° SW 04:32:47 23° S 04:36:13 10° ESE
BREEZE M DEB (TANK) 3.9 04:34:57 10° N 04:36:08 14° NE 04:37:22 10° ENE
Cosmos 1331 Rocket 4.0 04:34:30 10° N 04:39:44 71° ENE 04:44:59 10° SSE
Cosmos 1833 Rocket 3.3 04:35:27 10° N 04:40:34 36° ENE 04:45:44 10° SE
DMSP B5D2-2 4.1 04:37:29 10° NNE 04:42:45 76° ESE 04:48:04 10° S
Cosmos 1727 Rocket 4.2 04:36:51 10° NNE 04:42:54 53° E 04:49:00 10° SSE
NOAA 12 4.3 04:51:35 10° SSE 04:56:51 52° E 05:02:01 10° N
COSMO-SKYMED 1 3.7 04:54:33 10° N 04:58:48 49° W 05:03:07 10° SSW
Cosmos 1607 4.0 04:53:07 10° NNW 04:59:17 64° ENE 05:05:27 11° SE
BREEZE-M DEB (TANK) 2.8 04:53:21 10° WSW 05:02:44 89° N 05:05:51 12° ENE
Cosmos 1656 3.8 04:57:28 10° SSW 05:03:16 85° WNW 05:08:59 10° NNE
USA 308 4.2 04:59:57 10° SW 05:03:33 26° SSE 05:05:38 18° SE
Cosmos 1340 Rocket 2.8 05:03:37 10° N 05:07:35 61° E 05:11:39 10° SSE
FengYun 1-2 T 4.3 05:03:52 10° SSE 05:09:26 59° E 05:14:53 10° N
Cosmos 2100 Rocket 4.0 05:04:13 10° S 05:10:32 59° ESE 05:16:42 10° NNE
Cosmos 1459 Rocket 4.0 05:06:40 10° S 05:12:45 56° ESE 05:18:51 10° NNE
ADEOS 3.6 05:08:47 10° SSE 05:14:03 62° ENE 05:19:14 10° N
Cosmos 1980 Rocket 2.8 05:11:09 10° S 05:16:16 34° SE 05:20:12 15° ENE
H-2A R/B 2.3 05:11:39 10° SSE 05:16:24 41° E 05:21:03 10° NNE
Cosmos 1812 3.6 05:13:11 10° SSE 05:16:35 27° ESE 05:19:55 10° NE
Cosmos 2369 4.1 05:14:10 10° SSW 05:19:36 41° ESE 05:24:57 10° NE
GEOS 3 Rocket 4.4 05:18:00 22° ESE 05:20:33 33° ENE 05:25:14 10° N
Cosmos 2322 Rocket 4.2 05:19:51 10° SSE 05:20:47 11° SSE 05:20:47 11° SSE
Lacrosse 5 3.6 05:18:43 10° SW 05:22:30 20° S 05:24:44 16° SSE
SMAP 3.3 05:18:19 10° SSE 05:22:56 49° E 05:27:28 10° N
Cosmos 2061 Rocket 4.4 05:17:39 10° S 05:23:44 41° ESE 05:29:40 10° NE
Cosmos 2082 Rocket 2.8 05:18:49 10° NNE 05:23:50 34° ENE 05:26:12 24° ESE
Cosmos 1939 Rocket 2.9 05:20:02 10° S 05:23:58 78° WSW 05:27:51 10° NNW
ARGOS 3.9 05:23:26 22° ESE 05:25:37 29° E 05:30:17 10° NNE
Cosmos 1933 3.2 05:23:00 10° S 05:27:05 68° E 05:31:08 10° NNE
Cosmos 968 Rocket 3.4 05:23:11 10° SSW 05:28:34 84° ESE 05:33:51 10° NNE
USA 305 3.7 05:24:44 10° SW 05:28:34 32° SSE 05:29:30 29° SE
Lacrosse 4 Rocket 3.7 05:25:39 10° W 05:28:56 21° SW 05:32:18 10° S
Cosmos 724 4.4 05:24:32 10° NNW 05:30:33 62° ENE 05:34:39 22° SE
Meteor 1-31 Rocket 4.4 05:28:22 10° S 05:32:01 35° WSW 05:35:39 10° NW
ATLAS 2AS CENTAUR R/B 2.8 05:25:00 10° SW 05:32:06 89° ESE 05:39:39 10° NE
Cosmos 2360 4.1 05:26:24 10° SSW 05:32:12 78° ESE 05:37:55 10° NNE
Meteor PRIRODA 3.5 05:30:59 15° SSE 05:33:59 82° ENE 05:37:41 10° N
CZ-4B R/B 2.5 05:33:16 25° SSE 05:35:19 68° ENE 05:39:05 10° N
Cosmos 1697 Rocket 2.6 05:30:52 10° SSW 05:36:36 86° ESE 05:42:17 10° NNE
Cosmos 2151 2.9 05:32:22 10° N 05:36:41 73° E 05:40:44 12° SSE
Cosmos 1782 2.7 05:33:15 10° S 05:37:16 67° E 05:41:13 10° NNE
Cosmos 2123 Rocket 4.0 05:33:09 10° N 05:39:21 58° E 05:45:37 10° SSE
Cosmos 1725 Rocket 4.0 05:37:14 10° S 05:43:28 59° ESE 05:49:39 10° NNE
BREEZE-M DEB (TANK) 3.1 05:41:00 10° W 05:44:55 38° SSW 05:45:07 37° S
Lacrosse 5 rocket 3.5 05:45:10 10° SSW 05:47:20 14° S 05:47:36 14° S
COSMOS 2406 3.1 05:44:30 10° NNW 05:50:11 80° ENE 05:53:39 25° SSE
AQUARIUS 4.0 05:47:53 19° SSE 05:51:11 80° ENE 05:55:43 10° N
NOAA 6 3.9 05:53:01 18° SSE 05:56:57 75° ENE 06:02:05 10° N
Cosmos 1076 Rocket 4.5 05:54:18 10° NNW 05:58:33 48° WSW 06:02:51 10° S
SL-16 R/B 3.8 05:55:25 10° S 05:58:02 20° SSE 05:58:02 20° SSE
CZ-4C R/B 3.6 05:56:50 10° N 05:59:56 51° W 06:03:11 10° SSW
CORIOLIS 4.1 05:56:18 10° SSE 06:01:51 89° WSW 06:07:20 10° NNW
Meteor 2-3 Rocket 4.3 05:58:17 10° NNW 06:03:48 57° WSW 06:09:26 10° S
RESURS DK-1 3.7 06:00:31 10° SSW 06:02:48 29° S 06:02:48 29° S
USA 281 3.2 05:59:44 12° SSE 06:05:58 83° WSW 06:12:36 10° NNW
H-2A R/B 4.1 06:10:08 17° S 06:10:08 17° S 06:11:18 10° S
USA 215 4.2 06:00:40 10° NNE 06:06:57 46° NW 06:13:17 10° WSW
USA 306 3.7 06:06:39 10° SW 06:09:51 41° SSW 06:09:51 41° SSW
USA 307 3.9 06:09:06 10° SW 06:12:07 37° SSW 06:12:07 37° SSW
CZ-4B DEB 4.1 06:17:28 64° ESE 06:18:03 70° ENE 06:23:32 10° N
Cosmos 2278 3.7 06:13:52 10° SSW 06:19:04 59° SE 06:19:04 59° SE
Cosmos 1833 Rocket 4.0 06:19:12 10° WNW 06:24:28 38° SW 06:28:19 17° S
Cosmos 1486 Rocket 4.4 06:22:02 10° SSW 06:27:22 66° WNW 06:31:13 19° N
Meteor 2-6 Rocket 4.1 06:22:07 10° S 06:27:52 90° W 06:29:55 41° N
Aureole 1 Rocket 4.3 06:20:37 10° SSW 06:28:11 71° WNW 06:34:00 10° N
Cosmos 2360 Rocket 4.4 06:24:35 10° S 06:25:09 12° S 06:25:09 12° S
Cosmos 2233 Rocket 4.0 06:32:03 10° S 06:38:23 84° W 06:44:41 10° N
ATLAS 3B CENTAUR R/B 4.3 06:49:31 10° NW 06:53:57 16° NNW 06:54:28 16° N
H-2A R/B 3.9 06:51:30 10° S 06:55:36 26° WSW 06:59:40 10° WNW
GEOS 3 Rocket 4.4 06:59:07 49° WSW 06:59:07 49° WSW 07:03:45 10° WNW
Cosmos 1980 Rocket 3.3 06:55:05 10° SW 07:00:20 40° WNW 07:02:06 32° NNW
ARGOS 4.3 07:04:57 37° SW 07:05:59 41° WSW 07:11:02 10° NW
Lacrosse 5 4.1 07:02:18 10° SW 07:03:56 18° SSW 07:03:56 18° SSW
Cosmos 2322 Rocket 4.3 07:01:20 10° SSW 07:02:36 17° S 07:02:36 17° S
Cosmos 2082 Rocket 3.3 07:02:33 10° NW 07:07:49 39° SW 07:08:06 39° SW
